GFSNW_850_temp_087.txt.gz
Temp
-2 -2 -2 -2 -2 -2 -2 -3 -3 -0 -1 -1 -1 -2 3 4 5 6 6 5 7 7 8 8 9 9 10 11 11 10 9 8 8 9 11 11 10 9 8 8 9 9 9 10
-3 -2 -2 -2 -2 -2 -3 -3 -2 -1 -2 -1 -3 1 2 3 4 5 5 5 6 7 7 7 8 9 10 11 10 10 10 7 8 9 10 9 8 9 9 8 8 8 9 10
-3 -2 -2 -2 -2 -2 -3 -3 -2 -1 -1 -1 -1 0 2 3 5 5 6 6 7 6 7 7 7 8 9 10 9 9 9 8 8 6 7 8 8 9 9 9 8 8 9 10
-3 -3 -2 -2 -2 -2 -3 -3 -4 -2 -2 -1 -1 -1 1 2 3 4 5 6 5 5 5 6 5 6 8 9 8 8 7 7 8 8 8 8 8 9 10 8 8 8 9 9
-3 -3 -2 -2 -2 -2 -3 -2 -3 -2 -2 -1 -0 -1 1 1 2 4 4 4 5 4 5 5 4 4 5 6 7 7 6 7 6 7 8 8 8 9 10 10 9 8 8 8
-3 -2 -2 -2 -2 -2 -3 -3 -2 -3 -1 -1 -1 -0 -0 -0 1 3 4 4 4 4 4 5 5 5 5 5 6 6 6 6 5 6 6 7 7 9 10 10 9 9 8 9
-3 -2 -2 -2 -2 -2 -2 -3 -3 -3 -3 -2 -0 1 1 2 2 2 3 4 4 5 5 5 5 5 5 5 5 6 5 5 4 4 6 5 9 10 12 11 11 10 11 10
-3 -2 -2 -2 -1 -2 -1 -2 -3 -2 -4 -2 -1 0 1 1 2 2 4 4 4 5 5 4 4 4 5 6 5 4 5 4 3 4 5 7 8 10 9 9 9 10 8 10
-3 -3 -2 -2 -2 -1 -1 -1 -3 -2 -2 -3 -0 -0 0 -1 -1 1 2 3 4 4 1 2 3 4 5 6 6 5 4 4 4 2 4 4 7 9 9 10 9 7 9 9
-3 -3 -2 -2 -2 -2 -1 -1 -2 -3 -3 -1 -1 -1 -0 0 -0 -1 0 0 2 2 1 1 2 3 5 5 6 6 3 3 4 3 4 5 8 6 9 8 7 6 6 6
-3 -3 -2 -2 -2 -1 -1 -1 -1 -2 -3 -2 -1 -1 -0 0 0 -1 0 -0 -1 1 1 1 2 1 4 4 5 6 4 3 2 3 4 4 6 7 8 5 4 4 4 3
-3 -3 -2 -2 -2 -2 -1 -1 -1 -2 -2 -1 -2 -1 -0 0 0 -0 0 -1 -1 0 1 1 2 1 -1 2 3 4 2 4 5 5 4 5 4 4 4 4 3 3 3 2
-3 -3 -2 -2 -1 -1 -1 -1 -1 -2 -2 -2 -2 -1 1 0 1 1 0 -1 1 -1 -0 -0 1 2 3 1 2 3 2 1 3 4 4 4 3 1 2 2 0 0 -0 1
-3 -3 -2 -1 -1 -1 -1 -1 -1 -1 -2 -2 -0 1 1 2 1 1 1 1 1 0 0 0 1 1 2 1 2 3 2 2 3 2 2 1 0 0 0 1 0 0 -1 -2
-2 -2 -1 -1 -1 -1 -1 -1 -1 -1 -2 -2 -1 1 2 1 2 1 1 1 1 0 0 0 1 0 2 2 2 1 -0 -0 1 2 -1 -0 -2 -1 -0 1 0 -1 -2 -2
-0 -0 -0 -1 -1 -1 -1 -2 -2 -2 -2 -1 -3 1 2 2 2 2 1 1 1 1 0 1 1 2 2 -1 1 -2 -2 -2 -1 -1 -2 -2 -2 -2 -2 -1 -2 -2 -3 -4
-0 -0 -1 -1 -1 -1 -1 -1 -1 -2 -2 -2 -2 -2 1 2 1 0 0 1 1 1 1 0 1 1 2 1 0 -3 -3 -3 -3 -2 -2 -2 -2 -4 -4 -3 -3 -3 -3 -5
-0 -0 -1 -1 -1 -1 -1 -1 -1 -2 -2 -2 -2 -2 -0 1 1 0 1 1 1 0 -0 0 1 2 -0 -1 -3 -4 -4 -4 -3 -3 -3 -4 -4 -4 -4 -5 -5 -5 -6 -7
-0 -1 -1 -1 -1 -1 -1 -1 -1 -2 -1 -2 -1 -1 -2 1 0 0 1 2 -2 1 -1 0 1 -1 -3 -5 -5 -6 -6 -6 -5 -5 -4 -5 -5 -5 -5 -6 -7 -8 -9 -9
-1 -1 -1 -1 -1 -1 -2 -2 -2 -2 -1 -1 -1 1 -1 0 -0 -0 -0 1 -2 1 1 1 -2 -5 -6 -6 -6 -7 -7 -6 -6 -5 -6 -6 -6 -6 -6 -7 -8 -9 -10 -10
-1 -1 -1 -1 -1 -1 -1 -2 -1 -2 -1 -1 -1 0 -0 -0 0 -1 0 0 0 1 -0 1 -2 -5 -6 -7 -8 -8 -8 -8 -8 -8 -8 -7 -8 -8 -9 -9 -10 -10 -11 -11
-1 -1 -1 -1 -1 -1 -1 -2 -1 -1 -1 -2 -2 0 1 -0 0 0 -0 -0 0 1 -1 -2 -6 -6 -7 -8 -8 -8 -9 -9 -9 -10 -10 -10 -9 -10 -10 -10 -10 -11 -11 -11
-1 -0 -1 -1 -1 -1 -4 -1 -0 -1 -1 -1 0 0 0 -0 -0 -0 -1 1 -1 -1 -4 -6 -7 -7 -8 -8 -9 -9 -10 -10 -10 -11 -12 -11 -11 -11 -11 -11 -12 -12 -12 -12
-1 -2 -4 -2 -7 -6 -6 -5 -3 -1 0 -0 0 -1 -1 -1 -2 -1 1 -1 -2 -4 -6 -7 -9 -9 -9 -9 -9 -10 -10 -11 -11 -11 -11 -11 -12 -12 -12 -12 -12 -12 -12 -13
-2 -2 -6 -7 -5 -4 -3 -2 -2 -1 -0 1 -0 -1 -0 -4 -3 -4 -4 -3 -6 -6 -8 -11 -9 -9 -9 -9 -10 -10 -10 -11 -11 -11 -11 -11 -11 -12 -12 -12 -12 -12 -12 -13
-3 -4 -4 -4 -6 -5 -4 -3 -3 -1 -0 1 1 -3 -4 -4 -5 -5 -7 -4 -5 -9 -12 -9 -9 -9 -9 -9 -10 -11 -11 -11 -11 -11 -12 -12 -12 -12 -12 -12 -13 -13 -13 -13
-5 -6 -6 -5 -5 -6 -5 -4 -3 -1 -1 -4 -4 -5 -4 -4 -6 -7 -9 -11 -14 -11 -10 -9 -9 -9 -10 -10 -10 -11 -11 -11 -11 -11 -12 -12 -12 -12 -13 -13 -13 -13 -14 -14

GFSNW_850_temp_090.txt.gz
Temp
-2 -2 -2 -2 -2 -2 -2 -3 -4 -1 -2 -2 -2 -4 1 3 3 4 2 2 2 3 6 7 7 8 9 10 10 9 9 8 8 9 9 10 9 8 8 6 7 8 8 9
-3 -2 -2 -2 -2 -2 -2 -3 -3 -2 -2 -2 -2 -1 1 2 2 4 4 2 2 2 3 5 8 6 8 9 8 8 10 7 8 9 9 9 9 9 9 8 6 8 8 8
-3 -3 -2 -2 -2 -2 -2 -3 -4 -2 -2 -2 -1 -1 0 1 3 3 4 4 2 2 4 6 6 7 7 8 8 8 9 7 8 7 7 8 8 9 9 8 7 8 8 8
-3 -3 -3 -2 -2 -2 -3 -3 -4 -3 -4 -2 -2 -1 -0 1 2 4 3 2 2 3 3 5 4 5 6 8 7 7 7 6 7 8 8 8 8 8 8 8 8 7 8 8
-3 -3 -3 -2 -2 -2 -3 -3 -3 -3 -3 -1 -1 -1 -1 -1 0 2 3 3 4 4 4 4 4 4 5 5 6 6 6 6 6 7 8 7 7 7 7 8 9 8 10 9
-3 -3 -3 -2 -2 -2 -3 -3 -3 -3 -3 -2 -2 -0 0 -0 2 1 3 3 3 4 4 4 5 5 5 5 6 6 6 5 5 6 6 6 7 7 8 8 8 8 7 9
-3 -3 -3 -2 -2 -2 -3 -2 -3 -3 -5 -3 -1 -1 -0 1 1 1 3 3 3 3 4 5 4 4 4 4 4 5 5 5 4 4 6 4 8 9 9 9 9 8 9 9
-4 -3 -3 -2 -2 -2 -2 -2 -2 -3 -6 -2 -1 -1 -0 0 1 1 1 2 2 3 4 3 4 4 6 6 5 4 4 4 3 4 5 6 7 9 8 7 8 7 7 8
-4 -3 -3 -3 -2 -2 -1 -2 -2 -3 -3 -4 -1 -1 -0 -1 -1 -0 1 2 3 3 1 1 3 4 5 5 6 3 3 3 3 3 4 3 6 8 7 8 7 5 5 7
-4 -3 -3 -3 -2 -2 -2 -1 -2 -3 -3 -1 -1 -1 -1 -0 -1 -1 -0 0 1 2 0 1 2 3 4 5 5 5 2 2 4 3 4 4 6 5 8 7 5 4 4 6
-4 -3 -3 -3 -2 -2 -2 -1 -2 -2 -3 -1 -1 -1 -1 -0 -0 -2 0 -0 -1 1 1 1 2 1 3 3 4 5 4 2 2 4 4 4 3 6 5 4 3 3 2 1
-4 -3 -3 -3 -2 -2 -2 -2 -1 -2 -2 -1 -1 -1 -1 -0 -0 0 -0 -0 -1 -0 -1 0 1 2 -0 1 3 4 1 3 4 4 4 3 2 2 1 1 1 1 1 -0
-4 -3 -3 -3 -2 -2 -2 -2 -1 -2 -2 -2 -2 -1 0 0 0 0 -0 -1 0 -1 0 -1 1 1 3 1 1 3 1 1 2 2 2 2 1 0 -1 -0 -1 -1 -0 -1
-3 -3 -3 -3 -2 -2 -2 -2 -1 -1 -2 -3 -1 0 1 2 1 0 -0 0 0 0 -0 -0 1 1 2 2 3 2 1 1 1 2 1 0 -1 -2 -2 -2 -2 -1 -1 -2
-3 -2 -2 -2 -2 -2 -2 -2 -1 -1 -2 -2 -1 0 2 1 1 1 -0 -0 -0 -0 0 0 0 0 1 1 2 -1 -1 -1 -1 1 -2 -1 -3 -3 -3 -3 -4 -3 -3 -2
-2 -1 -1 -1 -2 -2 -1 -2 -1 -1 -1 -2 -4 0 1 1 1 1 0 -0 -1 -0 0 0 1 2 1 0 -2 -2 -2 -2 -2 -1 -2 -3 -3 -4 -4 -4 -4 -5 -4 -5
-1 -1 -1 -1 -1 -1 -1 -1 -1 -1 -2 -2 -3 -2 0 0 -1 -1 -0 -1 -0 0 -0 -0 1 1 2 1 1 -3 -3 -3 -3 -3 -2 -2 -3 -5 -5 -5 -5 -5 -5 -6
-1 -1 -1 -1 -1 -1 -1 -1 -1 -2 -2 -2 -2 -2 -0 0 -0 -1 0 -0 -0 0 -0 0 1 1 -0 -1 -4 -4 -4 -4 -4 -4 -4 -5 -5 -5 -5 -6 -6 -7 -8 -9
-1 -1 -1 -1 -1 -1 -1 -1 -2 -2 -2 -2 -2 -2 -2 -0 -1 -0 -0 1 -2 -0 -1 -1 -0 -2 -1 -6 -5 -5 -6 -6 -6 -5 -5 -5 -6 -6 -7 -7 -8 -9 -11 -10
-1 -1 -1 -2 -1 -1 -1 -2 -2 -2 -2 -2 -2 -0 -3 -0 -0 -0 -1 -0 -4 -1 -1 -0 -1 -6 -6 -6 -6 -7 -7 -7 -6 -6 -5 -8 -7 -7 -8 -8 -9 -9 -10 -10
-2 -1 -1 -1 -1 -1 -1 -2 -2 -2 -1 -2 -1 -0 -1 -1 -0 -1 -0 -2 -3 -2 -1 -0 -3 -4 -6 -7 -8 -8 -7 -7 -8 -8 -8 -8 -8 -8 -9 -10 -11 -11 -11 -11
-1 -1 -1 -2 -1 -1 -1 -3 -2 -1 -1 -1 -1 -1 0 -0 -0 -1 -1 1 -0 -0 -1 -2 -5 -6 -8 -8 -8 -9 -9 -9 -9 -9 -10 -10 -10 -9 -10 -10 -11 -11 -12 -12
-1 -1 -1 -1 -2 -1 -4 -3 -1 -1 -2 -2 -1 -0 0 -1 -0 -1 -0 -0 -2 -2 -4 -3 -8 -7 -8 -9 -9 -9 -9 -9 -9 -9 -9 -9 -9 -10 -10 -11 -11 -12 -12 -12
-1 -2 -2 -3 -4 -6 -5 -5 -5 -1 0 0 0 -1 -0 -1 -1 -1 0 -3 -2 -4 -6 -6 -9 -8 -9 -9 -9 -9 -10 -10 -11 -11 -11 -11 -11 -11 -11 -12 -12 -12 -11 -12
-3 -3 -4 -7 -5 -4 -3 -3 -2 -1 0 -0 -1 -2 -1 -5 -5 -4 -5 -2 -3 -5 -8 -13 -9 -9 -9 -9 -10 -10 -11 -11 -11 -12 -12 -12 -12 -12 -12 -12 -12 -12 -12 -12
-3 -4 -6 -5 -4 -4 -3 -2 -2 -1 -0 0 -0 -3 -4 -6 -7 -4 -6 -3 -4 -9 -12 -10 -9 -9 -9 -10 -10 -11 -11 -11 -12 -12 -12 -12 -12 -12 -12 -12 -13 -13 -13 -13
-5 -7 -6 -6 -5 -5 -5 -4 -3 -1 -0 -7 -4 -5 -5 -5 -8 -7 -9 -9 -12 -11 -10 -9 -9 -9 -10 -10 -10 -10 -11 -11 -12 -12 -12 -12 -12 -13 -13 -13 -13 -13 -13 -14

GFSNW_850_temp_096.txt.gz
Temp
-3 -2 -2 -2 -1 -1 0 -1 2 0 0 2 2 3 3 2 3 4 4 4 3 2 2 4 5 6 8 10 12 12 11 12 11 12 12 15 15 14 14 13 11 12 12 14
-3 -3 -2 -2 -2 -1 -1 -1 0 -0 -1 1 2 3 4 3 3 4 4 4 3 1 2 4 4 5 7 8 10 10 11 11 10 10 12 13 13 13 13 12 12 11 12 15
-3 -3 -3 -2 -2 -2 -1 -1 1 1 -1 -1 1 1 3 2 3 3 2 2 2 3 3 4 4 5 6 6 8 8 10 11 12 12 12 13 11 12 13 13 12 12 13 14
-3 -3 -3 -3 -2 -2 -2 -2 -0 -1 1 2 1 1 1 1 1 3 3 4 4 4 4 5 4 4 6 6 5 7 10 10 11 11 12 12 12 12 12 12 12 11 13 13
-3 -4 -3 -3 -2 -2 -2 -2 1 -1 0 1 2 2 2 1 2 2 4 4 5 6 4 3 4 4 4 6 7 6 7 8 11 10 11 11 11 12 12 12 12 12 12 13
-4 -3 -3 -3 -3 -2 -2 -2 -2 -2 1 2 2 3 2 2 3 3 4 5 5 6 4 3 4 4 5 6 6 7 9 9 10 10 10 10 10 10 12 12 12 12 12 12
-4 -3 -3 -3 -2 -2 -2 -2 -2 -1 1 2 3 2 2 3 3 3 4 4 4 5 3 5 6 5 6 7 8 7 9 9 9 9 9 9 10 12 11 11 11 11 11 12
-3 -3 -3 -3 -2 -2 -2 -2 -2 -2 1 2 3 2 2 3 3 4 3 3 3 2 4 7 8 8 8 8 8 8 9 9 8 8 9 10 10 9 9 9 10 8 8 9
-3 -3 -3 -3 -3 -2 -2 -2 -2 -2 -0 3 1 2 2 3 3 4 4 3 2 3 6 7 6 7 7 8 8 8 8 8 9 8 8 8 8 9 9 10 10 5 5 7
-3 -3 -4 -3 -3 -3 -2 -2 -2 -3 -1 1 -0 2 2 1 3 3 3 2 3 3 5 6 6 7 7 7 7 7 7 7 7 6 7 8 5 8 9 9 6 4 2 0
-4 -3 -4 -3 -3 -3 -2 -2 -2 -2 -2 0 -1 -0 1 2 2 2 2 4 3 4 4 5 5 5 6 6 6 6 7 7 7 7 7 6 1 7 6 2 1 1 -0 -1
-3 -3 -3 -3 -3 -3 -3 -2 -2 -2 -2 -2 -1 -1 -1 -1 -0 0 1 1 1 2 4 4 3 3 4 4 6 7 5 4 4 3 3 -0 -1 -2 -2 -2 -2 -1 -1 -2
-4 -4 -3 -3 -3 -3 -3 -2 -2 -2 -3 -2 -2 0 -0 0 -0 -1 1 1 0 1 -1 0 2 2 4 4 4 5 3 3 4 3 0 -0 -2 -2 -3 -3 -3 -3 -3 -3
-3 -4 -4 -3 -3 -3 -3 -2 -2 -2 -2 -1 1 0 1 1 1 -0 -1 -0 -0 -0 -1 1 1 2 4 4 5 4 4 4 2 2 0 0 -2 -3 -3 -4 -4 -4 -5 -5
-4 -4 -3 -3 -3 -3 -3 -2 -2 -2 -2 -1 1 0 0 1 0 -0 -1 -1 -0 1 2 3 3 4 3 3 4 4 1 0 2 2 -1 -1 -3 -4 -5 -5 -6 -5 -5 -5
-4 -4 -3 -3 -3 -3 -3 -2 -1 -2 -2 -2 1 0 -0 0 -0 -1 -1 -1 -0 0 1 2 0 1 3 3 3 -1 -2 -2 -2 -2 -3 -3 -4 -5 -5 -6 -6 -6 -6 -6
-4 -3 -3 -3 -3 -2 -2 -2 -1 -1 -2 -2 0 2 -1 -1 -2 -1 -1 -1 -0 0 1 1 2 3 3 3 3 -1 -2 -3 -3 -3 -3 -3 -4 -4 -5 -6 -7 -8 -8 -8
-3 -3 -3 -2 -2 -2 -2 -2 -2 -2 -2 -2 0 2 1 -1 0 1 -1 0 -1 -0 1 1 2 3 3 3 -1 -1 -2 -3 -3 -4 -4 -4 -5 -6 -6 -6 -6 -7 -8 -9
-3 -3 -2 -1 -1 -2 -2 -2 -2 -2 -2 -0 -1 2 2 -1 -0 -0 -1 0 0 1 2 2 2 3 2 -1 -1 -2 -4 -3 -4 -4 -5 -5 -6 -7 -7 -7 -8 -8 -9 -10
-3 -3 -2 -1 -1 -2 -2 -2 -2 -2 -2 -2 -0 0 2 -0 -1 -0 0 0 3 1 2 1 2 3 -4 -4 -5 -6 -6 -6 -5 -4 -5 -6 -7 -8 -9 -10 -10 -11 -11 -12
-3 -2 -2 -2 -2 -2 -2 -2 -1 -1 -1 -1 -0 0 2 0 2 1 0 2 2 2 3 2 2 2 -4 -6 -6 -7 -7 -7 -7 -8 -8 -8 -8 -8 -9 -10 -11 -12 -12 -12
-2 -2 -2 -2 -2 -2 -0 -0 -0 -0 1 1 -0 -0 1 0 -0 2 0 1 2 2 1 2 2 -3 -6 -6 -7 -8 -8 -8 -9 -9 -9 -10 -10 -10 -11 -11 -12 -12 -12 -12
-2 -2 -2 -2 -2 0 0 -0 0 1 0 -1 -1 -0 0 -1 -1 -0 1 1 2 0 2 3 -1 -5 -6 -7 -8 -9 -10 -10 -11 -11 -11 -12 -12 -11 -11 -11 -11 -12 -12 -12
-2 -1 -0 -0 -0 1 1 2 2 0 -1 -1 -0 -0 0 -1 -1 1 1 1 1 2 2 2 -3 -6 -8 -9 -9 -9 -9 -10 -10 -11 -11 -11 -11 -11 -12 -12 -12 -12 -12 -12
-2 -1 1 -1 -2 -3 -3 -2 -1 -1 -1 -1 -0 -0 1 0 0 0 0 0 2 2 2 -2 -6 -8 -9 -10 -10 -10 -10 -11 -11 -11 -11 -12 -12 -12 -12 -12 -13 -12 -12 -12
-4 -4 -3 -3 -1 -2 -2 -2 -2 -1 -1 -1 1 -0 0 1 1 -0 1 2 3 -0 -4 -7 -8 -10 -9 -10 -10 -10 -11 -11 -11 -11 -11 -12 -12 -12 -12 -12 -12 -12 -13 -13
-4 -4 -6 -4 -2 -2 -3 -2 -2 -1 -0 2 1 0 1 -0 0 0 -1 0 -3 -7 -8 -8 -9 -10 -9 -10 -10 -10 -10 -10 -10 -10 -10 -11 -11 -12 -12 -13 -13 -13 -13 -13

GFSNW_850_temp_099.txt.gz
Temp
-2 -2 -1 -1 0 1 1 2 5 2 1 4 5 6 6 6 6 6 6 5 3 2 2 3 4 6 7 12 14 14 15 13 12 13 16 13 16 14 15 13 13 15 14 13
-2 -2 -2 -1 -0 0 1 3 5 2 1 4 5 7 7 6 6 6 6 4 3 2 3 4 4 4 7 9 11 12 13 13 12 11 13 13 14 14 16 15 14 13 13 13
-3 -3 -2 -2 -1 -0 0 3 3 5 3 2 4 4 5 5 6 6 3 3 4 5 4 5 4 4 6 8 9 8 10 13 14 12 13 15 13 15 15 15 14 14 15 15
-3 -3 -3 -2 -1 -0 -0 1 3 3 4 5 4 4 4 4 4 6 6 7 8 7 4 4 3 5 5 7 8 6 9 9 8 14 15 15 14 13 14 13 14 13 14 15
-3 -3 -3 -2 -2 -1 -1 -0 4 3 4 4 5 4 4 4 6 6 6 6 8 8 7 5 4 5 5 4 6 6 8 10 11 12 14 14 13 14 14 14 14 14 15 12
-3 -3 -3 -2 -2 -1 -1 0 0 1 4 6 6 6 5 5 6 6 6 7 7 8 7 6 6 6 7 7 7 8 9 10 10 10 13 13 11 13 14 14 14 14 12 11
-4 -3 -3 -3 -2 -2 -1 -1 -0 1 4 6 6 5 5 6 6 5 6 6 6 6 5 7 9 8 9 10 10 9 9 11 11 10 11 11 12 13 13 13 11 11 12 11
-4 -3 -3 -3 -2 -2 -2 -1 -1 1 2 6 6 5 5 6 6 7 6 6 5 5 7 9 10 9 9 10 10 10 10 11 10 11 12 11 11 11 11 12 8 9 9 9
-4 -3 -3 -3 -2 -2 -2 -1 -2 -1 1 5 3 4 5 6 6 7 7 5 5 6 9 9 8 8 9 10 10 11 11 11 11 11 10 9 6 9 10 12 8 7 7 6
-3 -3 -3 -3 -3 -2 -2 -2 -1 -2 0 3 3 4 4 4 5 6 6 4 5 6 7 7 8 8 10 8 9 9 9 9 9 9 10 8 3 6 8 10 4 3 3 1
-3 -3 -3 -3 -3 -2 -2 -2 -2 -2 -1 2 2 2 2 3 4 4 4 5 5 4 6 6 6 6 7 8 9 8 8 7 8 9 9 7 0 7 5 0 -0 0 0 -0
-3 -3 -3 -3 -3 -3 -2 -2 -2 -2 -2 -0 -1 -0 0 1 2 2 4 3 4 4 4 5 3 5 6 8 6 9 6 5 5 4 3 -0 -1 -1 -2 -2 -2 -2 -1 -1
-4 -3 -3 -3 -3 -3 -3 -2 -2 -2 -2 -1 0 2 2 1 0 1 2 4 3 2 1 1 2 3 7 6 6 7 5 6 4 3 1 1 -0 -1 -2 -2 -3 -3 -2 -2
-3 -3 -3 -3 -3 -3 -3 -3 -2 -2 -2 0 3 2 2 1 1 1 1 2 2 2 2 2 3 3 6 6 6 5 5 5 4 1 1 0 -1 -2 -2 -2 -2 -2 -2 -2
-3 -3 -3 -3 -3 -3 -3 -2 -2 -2 -1 -0 1 2 3 1 1 1 1 1 1 2 3 4 4 5 5 6 6 4 3 1 2 2 -1 -1 -2 -4 -4 -4 -4 -3 -3 -3
-3 -3 -3 -3 -3 -3 -3 -2 -1 -1 -2 -1 2 2 2 1 1 1 1 1 2 2 2 3 3 3 4 4 5 0 -1 -1 -1 -1 -2 -3 -4 -4 -4 -3 -3 -3 -3 -4
-4 -4 -3 -3 -3 -3 -3 -1 -1 -2 -2 -2 1 4 1 1 1 1 1 1 1 1 2 3 4 4 4 4 5 1 -0 -0 -1 -2 -2 -2 -2 -2 -3 -3 -4 -5 -5 -6
-4 -4 -3 -3 -3 -3 -3 -2 -2 -2 -2 -2 1 3 3 1 1 1 1 1 1 1 2 2 4 5 4 3 2 1 -0 -0 -1 -2 -2 -2 -3 -3 -3 -4 -4 -4 -5 -6
-4 -4 -4 -4 -4 -3 -2 -2 -2 -2 -2 -1 0 3 2 1 1 0 2 1 2 2 2 2 4 5 3 0 2 1 -1 -1 -1 -3 -2 -3 -3 -4 -5 -5 -6 -6 -7 -8
-4 -4 -3 -2 -2 -1 -1 -2 -2 -2 -2 -1 1 2 3 2 2 2 1 2 3 3 4 3 3 4 -1 -2 -3 -3 -4 -3 -3 -3 -3 -4 -5 -5 -6 -7 -8 -9 -10 -11
-4 -3 -2 -2 -2 -2 -2 -2 -1 -1 0 1 1 2 4 2 2 2 2 3 4 4 4 4 4 3 -2 -3 -3 -4 -4 -4 -5 -5 -6 -6 -6 -6 -7 -8 -9 -10 -11 -12
-3 -2 -2 -2 -2 -1 -0 1 1 1 3 3 1 2 3 1 1 3 3 2 3 3 3 3 4 -2 -4 -4 -5 -5 -6 -6 -6 -6 -7 -8 -8 -8 -9 -10 -11 -12 -12 -11
-3 -2 -2 -2 -1 1 1 1 1 2 2 1 1 1 1 1 0 0 2 1 3 3 2 4 0 -3 -4 -5 -6 -7 -7 -8 -8 -9 -9 -10 -11 -11 -11 -11 -11 -12 -11 -11
-3 -2 0 0 0 2 3 4 4 2 1 1 1 1 2 -0 -0 1 2 2 3 3 3 3 -1 -4 -6 -7 -8 -9 -10 -9 -11 -11 -11 -10 -10 -10 -11 -11 -11 -11 -11 -12
-3 -1 1 0 0 -0 -1 0 0 -1 0 1 1 1 2 2 2 2 2 1 3 4 3 -1 -4 -6 -7 -8 -9 -10 -11 -11 -12 -11 -10 -11 -11 -11 -11 -11 -12 -12 -12 -12
-3 -2 -1 -1 -0 -1 -2 -1 -1 -0 0 1 1 1 2 1 2 1 2 3 4 1 -2 -5 -7 -8 -9 -10 -11 -10 -11 -11 -12 -12 -12 -12 -13 -13 -13 -13 -13 -13 -13 -13
-3 -3 -3 -2 -0 -0 -1 -1 -1 -1 -0 2 3 1 2 2 2 2 3 1 -1 -4 -6 -6 -7 -9 -10 -10 -10 -10 -11 -11 -12 -12 -12 -13 -13 -13 -12 -12 -13 -14 -14 -14

GFSNW_850_temp_102.txt.gz
Temp
-2 -2 -1 0 1 2 3 4 6 3 4 5 7 8 8 8 8 8 8 8 6 4 3 4 4 4 5 5 12 10 14 12 11 12 11 13 13 12 12 10 14 12 9 9
-2 -2 -2 -0 1 2 2 5 6 3 4 5 6 8 8 8 8 8 7 7 7 4 3 4 4 4 4 8 10 8 10 12 8 11 13 10 12 13 15 14 10 13 12 10
-3 -2 -2 -0 1 2 3 5 4 6 5 4 6 6 7 7 8 8 7 8 7 8 5 7 5 4 4 8 8 7 10 10 9 10 12 10 9 9 11 13 9 12 11 9
-3 -3 -2 -1 0 1 2 3 3 5 5 6 6 7 6 6 6 8 8 8 9 8 5 6 5 6 6 8 7 7 7 6 8 10 12 13 10 9 10 14 14 8 12 10
-3 -3 -3 -1 -0 0 1 2 5 5 6 6 7 5 6 6 7 8 8 7 8 8 7 6 5 6 7 6 6 5 7 6 5 7 13 10 10 13 13 14 14 14 11 7
-3 -3 -3 -2 -1 -0 1 2 2 4 6 8 7 7 7 7 7 7 8 8 8 7 7 6 7 8 8 7 6 6 7 9 8 10 13 12 10 13 13 11 11 10 8 7
-3 -3 -3 -2 -1 -1 -0 1 1 3 4 7 7 7 7 7 7 7 7 8 7 7 6 7 10 9 10 10 10 10 8 9 10 10 10 8 10 12 10 9 9 9 10 7
-3 -3 -3 -2 -2 -1 -1 0 0 2 3 6 7 6 7 7 8 8 8 8 6 6 7 9 8 9 7 10 11 11 11 9 10 10 10 9 10 8 7 7 4 6 7 6
-3 -3 -3 -3 -2 -1 -2 -1 -1 0 2 4 5 6 6 6 6 7 7 7 6 6 8 8 7 8 9 9 10 12 11 11 10 11 10 8 5 6 7 9 4 4 4 4
-3 -3 -3 -3 -2 -2 -1 -1 -0 -1 0 3 4 5 4 5 5 6 6 5 6 6 6 7 7 5 10 7 9 8 8 8 8 10 9 5 3 5 6 8 2 2 2 1
-3 -3 -3 -3 -2 -2 -2 -1 -1 -1 -0 2 2 3 3 4 4 4 4 5 5 4 5 6 6 6 8 7 8 8 6 6 6 7 7 5 1 5 3 -0 -1 -0 -0 -1
-3 -3 -3 -3 -2 -2 -2 -2 -2 -1 -2 -0 1 1 1 1 2 2 3 4 4 4 4 4 4 4 6 7 5 8 5 5 5 3 2 0 -0 -0 -2 -1 -2 -1 -1 -1
-3 -3 -3 -3 -3 -3 -2 -2 -2 -2 -2 -1 0 3 3 2 2 2 2 2 4 3 2 3 3 3 7 6 6 7 6 7 4 3 1 0 -0 -1 -1 -1 -2 -1 -1 -1
-4 -3 -3 -3 -3 -3 -3 -2 -2 -2 -1 0 3 3 3 3 2 2 2 2 2 3 4 3 3 3 6 6 7 6 5 6 4 2 1 0 -1 -2 -2 -2 -1 -1 -1 -1
-4 -3 -3 -3 -3 -3 -3 -3 -2 -2 -1 0 2 2 3 3 3 2 2 2 2 3 4 4 4 5 5 6 7 3 3 1 2 1 -1 -0 -2 -3 -3 -3 -2 -1 -1 -2
-4 -3 -3 -3 -3 -3 -3 -2 -1 -1 -2 -1 2 2 3 3 2 2 2 2 2 3 3 3 4 5 4 4 4 1 0 -1 -1 -1 -2 -1 -3 -3 -3 -2 -3 -2 -3 -3
-4 -3 -3 -3 -3 -3 -2 -1 -1 -1 -2 -1 1 4 3 2 2 2 2 2 1 2 2 4 4 5 4 4 4 1 1 1 -1 -2 -1 -1 -2 -1 -1 -2 -2 -3 -4 -5
-4 -4 -4 -3 -3 -3 -3 -2 -2 -1 -1 -1 0 3 2 2 2 2 2 1 1 1 2 3 4 5 5 3 2 1 1 0 -0 -1 -1 -1 -1 -1 -2 -2 -2 -3 -5 -6
-4 -4 -4 -4 -4 -4 -3 -2 -2 -2 -2 -1 1 2 2 1 2 2 2 2 1 3 2 4 4 5 3 0 3 2 0 0 -0 -1 -1 -2 -3 -3 -4 -5 -6 -7 -8 -9
-4 -4 -4 -4 -3 -2 -2 -2 -2 -2 -2 -2 1 2 3 3 2 3 2 2 3 2 4 4 4 2 -0 -1 -1 -2 -2 -2 -2 -2 -2 -3 -4 -5 -6 -8 -8 -9 -10 -10
-4 -4 -3 -2 -2 -2 -2 -2 -1 -1 0 1 2 3 3 3 3 2 3 2 4 4 4 4 4 2 -1 -2 -2 -3 -3 -3 -4 -4 -5 -5 -5 -6 -7 -8 -9 -10 -11 -11
-3 -3 -2 -2 -2 -2 -0 0 2 2 3 4 2 2 4 1 2 2 3 3 4 3 4 3 4 -2 -2 -3 -4 -5 -5 -5 -5 -6 -7 -7 -8 -8 -9 -10 -11 -11 -11 -11
-3 -3 -2 -2 -1 0 1 1 2 2 3 2 2 2 2 2 1 0 2 2 3 4 3 3 -0 -3 -3 -4 -5 -6 -7 -7 -8 -8 -9 -10 -10 -10 -10 -10 -11 -11 -11 -11
-3 -3 -1 0 0 2 3 4 4 3 2 2 2 2 2 1 1 1 2 3 3 3 3 2 -1 -4 -6 -7 -8 -9 -9 -9 -10 -10 -10 -10 -9 -10 -10 -10 -11 -11 -11 -11
-3 -2 1 1 1 -0 1 1 1 1 1 1 1 2 2 2 1 1 1 2 3 4 2 -1 -5 -6 -7 -8 -9 -10 -11 -10 -11 -11 -10 -10 -10 -10 -10 -11 -11 -11 -11 -11
-3 -2 -0 0 0 -1 -1 -0 -0 1 1 2 2 2 2 2 2 2 3 3 3 0 -2 -5 -6 -7 -8 -9 -10 -10 -11 -11 -11 -11 -11 -10 -11 -11 -11 -11 -11 -11 -12 -12
-3 -2 -3 -1 -0 -1 -1 -1 -0 1 1 2 3 2 2 2 2 2 3 1 -1 -4 -5 -6 -7 -8 -9 -10 -11 -10 -11 -11 -11 -11 -12 -12 -12 -11 -11 -12 -12 -12 -12 -12

GFSNW_850_temp_105.txt.gz
Temp
-2 -2 -0 1 1 2 2 4 1 4 5 3 5 0 7 8 8 8 7 6 6 4 3 3 2 3 4 4 5 6 8 8 9 10 10 11 10 10 9 9 9 8 9 8
-2 -2 -1 0 1 2 2 3 4 4 4 -1 -1 6 8 8 7 7 7 6 6 4 3 2 3 3 6 6 6 6 7 9 8 8 9 6 8 11 10 10 9 9 8 7
-2 -2 -1 -0 1 2 2 4 0 4 4 5 4 5 6 5 7 8 7 7 7 5 3 5 3 4 6 6 7 7 7 8 7 7 7 9 9 10 9 8 8 8 8 7
-2 -2 -1 -0 1 1 1 3 0 4 -1 1 5 5 6 5 4 7 8 7 6 5 3 3 3 5 5 7 7 6 5 6 5 7 8 8 7 7 7 9 9 8 7 7
-2 -2 -1 -0 0 1 2 3 3 5 5 6 5 5 5 6 6 6 6 5 6 6 5 4 3 5 4 4 5 5 6 5 5 7 5 7 6 6 9 7 7 7 6 6
-2 -3 -2 -1 -0 1 1 2 3 3 4 5 3 4 6 6 6 7 7 6 6 5 5 5 6 6 6 5 6 6 6 5 6 6 10 10 6 7 7 6 7 7 6 5
-3 -3 -2 -1 -1 -0 0 1 2 3 -1 2 6 6 6 6 6 5 7 7 5 6 6 6 8 8 6 6 8 8 7 7 7 8 9 7 4 6 6 4 4 6 5 3
-3 -3 -3 -2 -1 -1 -1 0 1 1 -2 4 5 6 6 6 6 5 6 5 5 6 6 5 7 6 7 9 9 10 9 8 6 7 6 7 7 5 4 5 3 3 3 3
-3 -3 -3 -2 -1 -1 -0 -0 0 1 1 1 3 5 4 2 2 2 5 5 5 5 4 4 6 6 7 6 7 10 9 8 7 7 7 6 4 3 3 5 2 1 1 0
-3 -3 -3 -3 -2 -1 -1 -1 -0 0 1 2 3 2 2 4 3 1 3 3 4 5 0 3 4 4 8 5 6 6 5 4 5 5 5 4 1 2 3 5 1 0 -1 -1
-3 -3 -3 -3 -2 -1 -1 -1 -1 -1 -0 1 1 2 2 2 3 -1 3 1 2 0 1 2 2 3 4 5 6 6 4 4 2 4 4 3 0 2 2 -0 -1 -1 -1 -2
-3 -3 -3 -2 -2 -2 -2 -1 -1 -1 -0 0 1 2 2 2 2 1 2 2 3 2 -1 0 1 1 2 4 4 6 3 4 2 2 1 -0 -1 -1 -1 -1 -1 -1 -1 -2
-3 -3 -3 -3 -2 -2 -2 -2 -1 -1 -1 0 1 3 3 3 2 2 2 2 2 3 3 2 -1 1 3 3 3 4 4 5 0 1 0 -0 -1 -2 -2 -2 -2 -2 -1 -1
-3 -3 -3 -3 -3 -2 -2 -2 -2 -1 -2 -1 1 3 3 3 3 2 2 2 2 2 3 2 -1 -0 4 3 4 3 2 3 2 1 -0 -1 -2 -3 -3 -2 -2 -1 -2 -2
-3 -3 -3 -3 -3 -3 -2 -2 -1 -2 -2 -1 0 2 3 3 3 2 2 2 2 2 2 0 0 3 2 3 3 1 1 0 1 -0 -1 -1 -2 -3 -3 -3 -2 -2 -2 -3
-3 -3 -3 -3 -3 -3 -3 -2 -1 -1 -2 -1 -1 2 3 3 3 2 2 2 2 2 3 2 3 4 3 -0 -0 -0 -0 -0 -1 -1 -2 -2 -3 -3 -2 -2 -3 -4 -4 -5
-3 -3 -3 -3 -3 -3 -2 -2 -2 -2 -2 -1 -0 1 2 3 2 2 2 2 2 2 2 2 3 4 4 -0 1 -1 0 -1 -1 -2 -2 -2 -2 -2 -2 -2 -2 -4 -5 -7
-3 -3 -3 -3 -3 -3 -2 -2 -2 -2 -1 -1 -1 -1 1 2 2 2 2 1 1 1 2 3 2 3 4 1 1 1 0 -0 -1 -1 -1 -1 -1 -2 -3 -3 -4 -5 -7 -8
-4 -3 -3 -3 -4 -4 -3 -2 -2 -2 -2 -2 -0 1 -1 1 2 2 2 1 -2 2 -1 1 2 -2 -1 -1 1 1 0 -0 -1 -1 -2 -2 -3 -4 -5 -5 -6 -7 -8 -9
-4 -4 -3 -3 -3 -2 -2 -2 -2 -2 -2 -2 -1 2 -2 2 2 2 1 2 -1 0 0 3 -2 -1 -1 -2 -2 -2 -2 -2 -2 -2 -3 -3 -5 -5 -6 -8 -8 -9 -10 -10
-4 -3 -4 -3 -2 -2 -2 -2 -2 -2 -1 -1 -0 1 0 2 -1 -1 2 -1 -1 0 1 -1 -1 -1 -2 -2 -3 -3 -3 -4 -5 -5 -5 -5 -6 -7 -8 -9 -9 -10 -10 -10
-3 -3 -3 -2 -2 -2 -1 -2 -1 -2 -0 2 1 1 2 2 2 0 1 -1 -2 -0 2 -1 -3 -3 -3 -4 -5 -5 -5 -5 -6 -6 -7 -7 -8 -8 -8 -9 -9 -9 -10 -10
-3 -3 -3 -2 -2 -1 -1 -1 -1 -0 2 3 2 -1 2 1 0 -0 -1 -0 -3 2 1 -1 -2 -4 -4 -5 -6 -6 -7 -7 -7 -8 -8 -8 -9 -9 -9 -9 -9 -10 -10 -10
-3 -3 -2 -2 -1 -2 -2 -2 -1 3 3 2 2 2 2 1 -1 0 1 -1 -0 -1 -2 -0 -3 -5 -5 -6 -6 -7 -7 -8 -8 -8 -9 -9 -9 -9 -9 -9 -10 -10 -10 -11
-4 -3 -1 -3 1 -0 1 1 2 2 2 2 2 1 2 -1 -2 -0 1 -1 -2 -1 -0 -3 -5 -6 -6 -7 -7 -8 -8 -9 -8 -9 -9 -9 -9 -9 -9 -10 -10 -10 -11 -11
-4 -3 -2 -0 0 -1 -0 0 1 1 2 2 2 -0 -0 1 1 -0 -2 1 1 -1 -4 -6 -6 -7 -7 -7 -8 -9 -10 -11 -10 -9 -9 -9 -9 -10 -10 -10 -11 -11 -11 -11
-3 -2 -2 -3 -1 -1 -1 -1 1 1 1 -1 0 0 1 -1 0 1 -0 -1 -3 -5 -6 -6 -6 -7 -8 -9 -10 -11 -11 -11 -10 -10 -10 -10 -10 -10 -10 -11 -11 -11 -11 -11